UAL217 KIAH-KSAN

Flight info

Callsign UAL217
Flight time 2h 16m
Altitude 36000
Route PITZZ5 CRGER EWM/N0449F380 Q2 ITUCO GBN HOGGZ LUCKI1
Aircraft A320/M-SDE3FGHIRWY/LB1

Departure

Time 2026-05-08 04:28
Airport George Bush Intercontinental Airport (KIAH)

Arrival

Time 2026-05-08 06:45
Airport San Diego International Airport (KSAN)
Time Latitude Longitude Altitude Speed Heading
2026-05-08 03:46 29.98895 -95.34109 99 ft 0 kts 240°
2026-05-08 04:15 29.98899 -95.34099 98 ft 4 kts 242°
2026-05-08 04:15 29.98910 -95.34071 99 ft 4 kts 256°
2026-05-08 04:16 29.98911 -95.34044 99 ft 4 kts 306°
2026-05-08 04:16 29.98904 -95.34036 99 ft 2 kts 359°
2026-05-08 04:21 29.98906 -95.34036 99 ft 2 kts 360°
2026-05-08 04:21 29.98929 -95.34036 99 ft 5 kts 360°
2026-05-08 04:21 29.98976 -95.34037 99 ft 8 kts 359°
2026-05-08 04:22 29.99040 -95.34040 100 ft 10 kts 356°
2026-05-08 04:22 29.99092 -95.34069 98 ft 8 kts 262°
2026-05-08 04:22 29.99090 -95.34148 101 ft 11 kts 271°
2026-05-08 04:22 29.99091 -95.34247 98 ft 13 kts 269°
2026-05-08 04:23 29.99090 -95.34359 98 ft 15 kts 269°
2026-05-08 04:23 29.99088 -95.34488 100 ft 17 kts 269°
2026-05-08 04:23 29.99090 -95.34632 97 ft 19 kts 271°
2026-05-08 04:23 29.99091 -95.34792 98 ft 21 kts 270°
2026-05-08 04:24 29.99091 -95.34968 96 ft 23 kts 270°
2026-05-08 04:24 29.99092 -95.35159 95 ft 25 kts 270°
2026-05-08 04:24 29.99092 -95.35365 95 ft 27 kts 270°
2026-05-08 04:24 29.99094 -95.35587 95 ft 27 kts 271°
2026-05-08 04:25 29.99099 -95.35773 97 ft 22 kts 270°
2026-05-08 04:25 29.99099 -95.35829 97 ft 2 kts 266°
2026-05-08 04:25 29.99097 -95.35855 97 ft 4 kts 264°
2026-05-08 04:25 29.99091 -95.35909 97 ft 9 kts 259°
2026-05-08 04:26 29.99068 -95.35982 98 ft 10 kts 240°
2026-05-08 04:26 29.99012 -95.36031 98 ft 12 kts 183°
2026-05-08 04:26 29.98927 -95.35994 101 ft 14 kts 152°
2026-05-08 04:26 29.98837 -95.35949 102 ft 14 kts 159°
2026-05-08 04:27 29.98756 -95.35884 104 ft 14 kts 121°
2026-05-08 04:27 29.98764 -95.35778 105 ft 14 kts 119°
2026-05-08 04:27 29.98702 -95.35735 104 ft 0 kts 153°
2026-05-08 04:27 29.98646 -95.35701 103 ft 35 kts 152°
2026-05-08 04:28 29.98219 -95.35438 102 ft 101 kts 152°
2026-05-08 04:28 29.97451 -95.34967 99 ft 149 kts 152°
2026-05-08 04:28 29.96434 -95.34353 315 ft 170 kts 150°
2026-05-08 04:28 29.95316 -95.33883 864 ft 173 kts 169°
2026-05-08 04:29 29.94096 -95.34018 1354 ft 184 kts 200°
2026-05-08 04:29 29.92996 -95.34914 1627 ft 209 kts 229°
2026-05-08 04:29 29.92125 -95.36377 1873 ft 235 kts 238°
2026-05-08 04:29 29.91251 -95.38083 2261 ft 259 kts 237°
2026-05-08 04:30 29.90298 -95.39862 3002 ft 266 kts 234°
2026-05-08 04:30 29.89267 -95.41636 3947 ft 267 kts 232°
2026-05-08 04:30 29.88218 -95.43424 4720 ft 274 kts 238°
2026-05-08 04:30 29.87291 -95.45342 5593 ft 274 kts 238°
2026-05-08 04:31 29.86351 -95.47276 6435 ft 278 kts 238°
2026-05-08 04:31 29.85393 -95.49224 7192 ft 281 kts 238°
2026-05-08 04:31 29.84434 -95.51188 8023 ft 282 kts 239°
2026-05-08 04:31 29.83535 -95.53199 8842 ft 283 kts 249°
2026-05-08 04:32 29.83124 -95.55418 9643 ft 286 kts 266°
2026-05-08 04:32 29.83336 -95.57692 10396 ft 288 kts 284°
2026-05-08 04:32 29.84144 -95.59865 10779 ft 307 kts 297°
2026-05-08 04:32 29.85233 -95.62084 11003 ft 325 kts 297°
2026-05-08 04:33 29.86371 -95.64356 11565 ft 330 kts 298°
2026-05-08 04:33 29.87523 -95.66646 12275 ft 331 kts 298°
2026-05-08 04:33 29.88674 -95.68947 13001 ft 331 kts 297°
2026-05-08 04:33 29.89824 -95.71260 13762 ft 331 kts 297°
2026-05-08 04:34 29.90950 -95.73529 14440 ft 331 kts 297°
2026-05-08 04:34 29.92093 -95.75844 15054 ft 333 kts 296°
2026-05-08 04:34 29.93240 -95.78175 15641 ft 336 kts 296°
2026-05-08 04:34 29.94396 -95.80531 15921 ft 338 kts 295°
2026-05-08 04:35 29.95556 -95.82885 15994 ft 338 kts 296°
2026-05-08 04:35 29.96719 -95.85241 16005 ft 338 kts 296°
2026-05-08 04:35 29.97881 -95.87594 16005 ft 338 kts 295°
2026-05-08 04:35 29.99038 -95.89944 16003 ft 337 kts 295°
2026-05-08 04:36 30.00191 -95.92290 15992 ft 336 kts 295°
2026-05-08 04:36 30.01347 -95.94650 16360 ft 339 kts 295°
2026-05-08 04:36 30.02509 -95.97022 16982 ft 340 kts 294°
2026-05-08 04:36 30.03675 -95.99412 17554 ft 343 kts 294°
2026-05-08 04:37 30.04849 -96.01817 18121 ft 345 kts 294°
2026-05-08 04:37 30.06028 -96.04239 18602 ft 347 kts 292°
2026-05-08 04:37 30.06986 -96.06786 19103 ft 345 kts 283°
2026-05-08 04:37 30.07558 -96.09463 19602 ft 343 kts 276°
2026-05-08 04:38 30.07968 -96.12178 20150 ft 345 kts 276°
2026-05-08 04:38 30.08389 -96.14913 20670 ft 347 kts 276°
2026-05-08 04:38 30.08814 -96.17661 21181 ft 349 kts 276°
2026-05-08 04:38 30.09243 -96.20428 21692 ft 351 kts 276°
2026-05-08 04:39 30.09675 -96.23216 22200 ft 354 kts 276°
2026-05-08 04:39 30.10105 -96.25991 22716 ft 356 kts 276°
2026-05-08 04:39 30.10539 -96.28811 23216 ft 359 kts 276°
2026-05-08 04:39 30.10975 -96.31661 23641 ft 361 kts 276°
2026-05-08 04:40 30.11414 -96.34526 24033 ft 363 kts 276°
2026-05-08 04:40 30.11856 -96.37403 24437 ft 365 kts 276°
2026-05-08 04:40 30.12301 -96.40295 24860 ft 366 kts 276°
2026-05-08 04:40 30.12747 -96.43197 25258 ft 368 kts 276°
2026-05-08 04:41 30.13193 -96.46118 25637 ft 370 kts 276°
2026-05-08 04:41 30.13639 -96.49047 26038 ft 371 kts 275°
2026-05-08 04:41 30.14086 -96.51987 26429 ft 373 kts 275°
2026-05-08 04:41 30.14535 -96.54944 26831 ft 374 kts 275°
2026-05-08 04:42 30.14984 -96.57913 27210 ft 376 kts 275°
2026-05-08 04:42 30.15433 -96.60892 27600 ft 377 kts 275°
2026-05-08 04:42 30.15885 -96.63889 27988 ft 379 kts 275°
2026-05-08 04:42 30.16337 -96.66897 28380 ft 381 kts 275°
2026-05-08 04:43 30.16786 -96.69879 28768 ft 383 kts 275°
2026-05-08 04:43 30.17240 -96.72914 29148 ft 384 kts 275°
2026-05-08 04:43 30.17699 -96.75966 29520 ft 386 kts 275°
2026-05-08 04:43 30.18160 -96.79030 29886 ft 388 kts 275°
2026-05-08 04:44 30.18623 -96.82107 30225 ft 390 kts 275°
2026-05-08 04:44 30.19086 -96.85185 30657 ft 388 kts 274°
2026-05-08 04:44 30.19543 -96.88250 31126 ft 385 kts 274°
2026-05-08 04:44 30.19997 -96.91294 31558 ft 383 kts 274°
2026-05-08 04:45 30.20448 -96.94318 31979 ft 382 kts 274°
2026-05-08 04:45 30.20897 -96.97334 32408 ft 380 kts 274°
2026-05-08 04:45 30.21342 -97.00335 32862 ft 378 kts 274°
2026-05-08 04:45 30.21784 -97.03323 33317 ft 376 kts 274°
2026-05-08 04:46 30.22220 -97.06299 33766 ft 374 kts 273°
2026-05-08 04:46 30.22652 -97.09255 34179 ft 372 kts 273°
2026-05-08 04:46 30.23088 -97.12204 34523 ft 371 kts 273°
2026-05-08 04:46 30.23527 -97.15128 34806 ft 368 kts 273°
2026-05-08 04:47 30.23966 -97.18037 35162 ft 366 kts 273°
2026-05-08 04:47 30.24400 -97.20925 35510 ft 364 kts 273°
2026-05-08 04:47 30.24831 -97.23801 35851 ft 362 kts 272°
2026-05-08 04:47 30.25254 -97.26671 35967 ft 362 kts 272°
2026-05-08 04:48 30.26089 -97.32370 36013 ft 362 kts 272°
2026-05-08 04:48 30.26931 -97.38107 36012 ft 362 kts 272°
2026-05-08 04:49 30.27778 -97.43841 36010 ft 362 kts 272°
2026-05-08 04:49 30.28623 -97.49572 36010 ft 361 kts 272°
2026-05-08 04:50 30.29463 -97.55310 36030 ft 362 kts 272°
2026-05-08 04:50 30.30299 -97.61056 36061 ft 362 kts 272°
2026-05-08 04:51 30.31131 -97.66809 36056 ft 363 kts 272°
2026-05-08 04:51 30.31963 -97.72568 36051 ft 363 kts 273°
2026-05-08 04:52 30.33057 -97.78313 36054 ft 367 kts 276°
2026-05-08 04:52 30.34342 -97.84042 36098 ft 368 kts 277°
2026-05-08 04:53 30.35606 -97.89732 36109 ft 367 kts 276°
2026-05-08 04:53 30.36828 -97.95468 36114 ft 367 kts 276°
2026-05-08 04:54 30.38025 -98.01209 36119 ft 367 kts 276°
2026-05-08 04:54 30.39223 -98.06959 36115 ft 367 kts 276°
2026-05-08 04:55 30.40427 -98.12716 36110 ft 367 kts 276°
2026-05-08 04:55 30.41631 -98.18469 36092 ft 367 kts 276°
2026-05-08 04:56 30.42832 -98.24223 36099 ft 367 kts 275°
2026-05-08 04:56 30.44023 -98.29980 36103 ft 367 kts 275°
2026-05-08 04:57 30.45223 -98.35739 36118 ft 368 kts 276°
2026-05-08 04:57 30.46501 -98.41492 36113 ft 369 kts 276°
2026-05-08 04:58 30.49436 -98.54504 36076 ft 369 kts 276°
2026-05-08 04:58 30.54503 -98.77564 36088 ft 369 kts 276°
2026-05-08 04:59 30.59562 -99.00632 36049 ft 368 kts 276°
2026-05-08 04:59 30.64550 -99.23702 36009 ft 368 kts 275°
2026-05-08 05:00 30.69452 -99.46523 36012 ft 364 kts 275°
2026-05-08 05:00 30.74327 -99.69449 36058 ft 366 kts 275°
2026-05-08 05:01 30.79172 -99.92457 36041 ft 366 kts 275°
2026-05-08 05:01 30.83970 -100.15437 36023 ft 365 kts 275°
2026-05-08 05:02 30.88708 -100.38284 36032 ft 365 kts 274°
2026-05-08 05:02 30.93413 -100.61313 36033 ft 366 kts 274°
2026-05-08 05:03 30.98117 -100.84476 36028 ft 368 kts 274°
2026-05-08 05:03 31.02791 -101.07747 36035 ft 368 kts 274°
2026-05-08 05:04 31.07422 -101.30988 36065 ft 367 kts 274°
2026-05-08 05:04 31.11987 -101.54200 36007 ft 366 kts 273°
2026-05-08 05:05 31.16533 -101.77464 36027 ft 369 kts 273°
2026-05-08 05:05 31.21016 -102.00722 36024 ft 369 kts 273°
2026-05-08 05:06 31.25469 -102.24111 36010 ft 369 kts 273°
2026-05-08 05:06 31.29915 -102.47623 36016 ft 371 kts 273°
2026-05-08 05:07 31.34329 -102.71230 35990 ft 372 kts 273°
2026-05-08 05:07 31.37995 -102.91039 35993 ft 372 kts 273°
2026-05-08 05:08 31.42337 -103.14690 36027 ft 371 kts 273°
2026-05-08 05:08 31.46623 -103.38378 36056 ft 371 kts 273°
2026-05-08 05:09 31.50856 -103.61905 36046 ft 372 kts 273°
2026-05-08 05:09 31.55085 -103.85845 35983 ft 373 kts 273°
2026-05-08 05:10 31.61347 -104.21684 35960 ft 377 kts 273°
2026-05-08 05:11 31.65547 -104.46041 35939 ft 383 kts 274°
2026-05-08 05:11 31.69727 -104.70617 35930 ft 384 kts 274°
2026-05-08 05:12 31.73869 -104.95258 35929 ft 386 kts 275°
2026-05-08 05:12 31.78007 -105.20225 35903 ft 392 kts 275°
2026-05-08 05:13 31.80618 -105.36088 35914 ft 395 kts 275°
2026-05-08 05:13 31.81655 -105.42444 35915 ft 396 kts 275°
2026-05-08 05:14 31.82694 -105.48817 35917 ft 397 kts 275°
2026-05-08 05:14 31.83726 -105.55192 35920 ft 397 kts 275°
2026-05-08 05:15 31.84759 -105.61578 35920 ft 397 kts 275°
2026-05-08 05:15 31.85782 -105.67933 35941 ft 398 kts 275°
2026-05-08 05:16 31.86808 -105.74324 35939 ft 398 kts 275°
2026-05-08 05:16 31.87837 -105.80712 35930 ft 397 kts 275°
2026-05-08 05:17 31.88861 -105.87106 35945 ft 397 kts 275°
2026-05-08 05:17 31.89881 -105.93499 35926 ft 397 kts 275°
2026-05-08 05:18 31.90892 -105.99886 35958 ft 397 kts 275°
2026-05-08 05:18 31.91895 -106.06271 35985 ft 397 kts 275°
2026-05-08 05:19 31.92897 -106.12650 35994 ft 396 kts 275°
2026-05-08 05:19 31.93898 -106.19024 36014 ft 396 kts 275°
2026-05-08 05:20 31.94891 -106.25406 36030 ft 396 kts 275°
2026-05-08 05:20 31.95881 -106.31790 36043 ft 396 kts 275°
2026-05-08 05:21 31.96864 -106.38178 36057 ft 397 kts 275°
2026-05-08 05:21 31.97848 -106.44575 36037 ft 397 kts 275°
2026-05-08 05:22 31.98822 -106.50941 36005 ft 398 kts 275°
2026-05-08 05:22 31.99796 -106.57360 36029 ft 398 kts 275°
2026-05-08 05:23 32.00769 -106.63777 36044 ft 398 kts 275°
2026-05-08 05:23 32.01738 -106.70198 36053 ft 398 kts 274°
2026-05-08 05:24 32.02706 -106.76625 36036 ft 399 kts 275°
2026-05-08 05:24 32.03677 -106.83074 36010 ft 400 kts 275°
2026-05-08 05:25 32.04636 -106.89502 35971 ft 401 kts 275°
2026-05-08 05:25 32.05597 -106.95980 35977 ft 401 kts 274°
2026-05-08 05:26 32.06562 -107.02463 35972 ft 402 kts 275°
2026-05-08 05:26 32.07526 -107.08961 35964 ft 403 kts 275°
2026-05-08 05:27 32.08492 -107.15492 35928 ft 404 kts 275°
2026-05-08 05:27 32.09447 -107.22036 35903 ft 405 kts 275°
2026-05-08 05:28 32.10408 -107.28590 35881 ft 406 kts 275°
2026-05-08 05:28 32.11366 -107.35151 35897 ft 406 kts 275°
2026-05-08 05:29 32.12321 -107.41716 35931 ft 407 kts 275°
2026-05-08 05:29 32.13274 -107.48305 35955 ft 408 kts 275°
2026-05-08 05:30 32.14222 -107.54927 35990 ft 409 kts 275°
2026-05-08 05:30 32.15178 -107.61558 36023 ft 411 kts 275°
2026-05-08 05:31 32.16120 -107.68165 36053 ft 411 kts 275°
2026-05-08 05:31 32.17066 -107.74817 36077 ft 411 kts 276°
2026-05-08 05:32 32.18018 -107.81487 35870 ft 413 kts 275°
2026-05-08 05:32 32.18961 -107.88189 35860 ft 414 kts 275°
2026-05-08 05:33 32.19909 -107.94906 35868 ft 415 kts 275°
2026-05-08 05:33 32.20853 -108.01640 35871 ft 416 kts 275°
2026-05-08 05:34 32.21796 -108.08384 35879 ft 416 kts 275°
2026-05-08 05:34 32.22731 -108.15135 35883 ft 416 kts 275°
2026-05-08 05:35 32.23661 -108.21849 35887 ft 417 kts 275°
2026-05-08 05:35 32.24599 -108.28604 35895 ft 417 kts 275°
2026-05-08 05:36 32.25527 -108.35368 35940 ft 417 kts 275°
2026-05-08 05:36 32.26455 -108.42134 35986 ft 417 kts 275°
2026-05-08 05:37 32.27383 -108.48925 36018 ft 420 kts 276°
2026-05-08 05:37 32.28306 -108.55754 36052 ft 421 kts 276°
2026-05-08 05:38 32.29229 -108.62611 36061 ft 424 kts 277°
2026-05-08 05:38 32.30161 -108.69521 36060 ft 427 kts 277°
2026-05-08 05:39 32.31090 -108.76473 35870 ft 429 kts 277°
2026-05-08 05:39 32.32026 -108.83456 35869 ft 431 kts 278°
2026-05-08 05:40 32.32957 -108.90479 35860 ft 433 kts 278°
2026-05-08 05:40 32.33886 -108.97536 35869 ft 435 kts 278°
2026-05-08 05:41 32.34817 -109.04561 35862 ft 435 kts 278°
2026-05-08 05:41 32.35744 -109.11637 35874 ft 436 kts 278°
2026-05-08 05:42 32.36667 -109.18734 35872 ft 437 kts 278°
2026-05-08 05:42 32.37587 -109.25842 35870 ft 438 kts 278°
2026-05-08 05:43 32.38514 -109.32982 35864 ft 439 kts 278°
2026-05-08 05:43 32.39435 -109.40126 35875 ft 439 kts 278°
2026-05-08 05:44 32.40355 -109.47275 35884 ft 440 kts 279°
2026-05-08 05:44 32.41273 -109.54456 35862 ft 443 kts 281°
2026-05-08 05:45 32.42199 -109.61699 35853 ft 446 kts 281°
2026-05-08 05:45 32.43115 -109.68937 35877 ft 449 kts 280°
2026-05-08 05:46 32.44029 -109.76253 35872 ft 450 kts 280°
2026-05-08 05:46 32.45153 -109.83536 35897 ft 450 kts 285°
2026-05-08 05:47 32.46603 -109.90744 35904 ft 450 kts 286°
2026-05-08 05:47 32.48076 -109.97970 35937 ft 451 kts 285°
2026-05-08 05:48 32.49463 -110.05223 35949 ft 452 kts 285°
2026-05-08 05:48 32.50792 -110.12463 35977 ft 452 kts 284°
2026-05-08 05:49 32.52132 -110.19740 35978 ft 452 kts 285°
2026-05-08 05:49 32.53481 -110.27009 35978 ft 451 kts 286°
2026-05-08 05:50 32.54837 -110.34279 35990 ft 452 kts 286°
2026-05-08 05:50 32.56184 -110.41562 35989 ft 452 kts 285°
2026-05-08 05:51 32.57526 -110.48861 35999 ft 453 kts 286°
2026-05-08 05:51 32.58865 -110.56157 35995 ft 453 kts 286°
2026-05-08 05:52 32.60196 -110.63452 36004 ft 452 kts 286°
2026-05-08 05:52 32.61528 -110.70747 36003 ft 452 kts 286°
2026-05-08 05:53 32.62852 -110.78043 36009 ft 452 kts 286°
2026-05-08 05:53 32.64158 -110.85279 35994 ft 451 kts 286°
2026-05-08 05:54 32.65466 -110.92546 36000 ft 450 kts 286°
2026-05-08 05:54 32.66775 -110.99805 35992 ft 449 kts 286°
2026-05-08 05:55 32.68077 -111.07055 36007 ft 449 kts 286°
2026-05-08 05:55 32.69368 -111.14304 35971 ft 449 kts 287°
2026-05-08 05:56 32.70440 -111.20331 35993 ft 448 kts 286°
2026-05-08 05:56 32.71723 -111.27578 35980 ft 448 kts 286°
2026-05-08 05:57 32.73208 -111.35990 35974 ft 447 kts 286°
2026-05-08 05:57 32.74276 -111.42047 35955 ft 447 kts 286°
2026-05-08 05:58 32.75538 -111.49278 35935 ft 447 kts 286°
2026-05-08 05:58 32.76801 -111.56494 35895 ft 446 kts 286°
2026-05-08 05:59 32.78061 -111.63716 35894 ft 446 kts 286°
2026-05-08 05:59 32.79317 -111.70945 35870 ft 447 kts 286°
2026-05-08 06:00 32.80566 -111.78178 35871 ft 447 kts 286°
2026-05-08 06:00 32.81807 -111.85379 35865 ft 448 kts 286°
2026-05-08 06:01 32.83063 -111.92689 35869 ft 449 kts 286°
2026-05-08 06:01 32.84302 -111.99924 35872 ft 449 kts 286°
2026-05-08 06:02 32.85543 -112.07203 35883 ft 450 kts 286°
2026-05-08 06:02 32.86782 -112.14497 35876 ft 450 kts 286°
2026-05-08 06:03 32.88010 -112.21798 35894 ft 450 kts 285°
2026-05-08 06:03 32.89241 -112.29097 35891 ft 450 kts 285°
2026-05-08 06:04 32.90469 -112.36400 35897 ft 450 kts 285°
2026-05-08 06:04 32.91690 -112.43707 35890 ft 450 kts 286°
2026-05-08 06:05 32.92900 -112.50969 35913 ft 450 kts 285°
2026-05-08 06:05 32.94112 -112.58272 35933 ft 450 kts 285°
2026-05-08 06:06 32.95243 -112.65600 35947 ft 453 kts 279°
2026-05-08 06:06 32.94924 -112.73140 35948 ft 460 kts 265°
2026-05-08 06:07 32.93970 -112.80669 35929 ft 460 kts 265°
2026-05-08 06:07 32.93023 -112.88188 35938 ft 459 kts 265°
2026-05-08 06:08 32.92078 -112.95693 35929 ft 458 kts 265°
2026-05-08 06:08 32.91134 -113.03134 35914 ft 457 kts 265°
2026-05-08 06:09 32.90183 -113.10614 35895 ft 457 kts 265°
2026-05-08 06:09 32.89228 -113.18086 35882 ft 456 kts 265°
2026-05-08 06:10 32.88269 -113.25533 35889 ft 455 kts 265°
2026-05-08 06:10 32.87306 -113.32975 35889 ft 455 kts 265°
2026-05-08 06:11 32.86340 -113.40403 35875 ft 454 kts 265°
2026-05-08 06:11 32.85369 -113.47831 35886 ft 454 kts 264°
2026-05-08 06:12 32.84395 -113.55246 35891 ft 453 kts 264°
2026-05-08 06:12 32.83422 -113.62646 35893 ft 453 kts 264°
2026-05-08 06:13 32.82442 -113.70045 35896 ft 453 kts 264°
2026-05-08 06:13 32.81458 -113.77434 35875 ft 452 kts 264°
2026-05-08 06:14 32.80478 -113.84769 35887 ft 451 kts 264°
2026-05-08 06:14 32.79486 -113.92132 35883 ft 451 kts 264°
2026-05-08 06:15 32.78487 -113.99486 35888 ft 450 kts 264°
2026-05-08 06:15 32.77587 -114.06835 35877 ft 447 kts 271°
2026-05-08 06:16 32.77786 -114.14161 35865 ft 443 kts 276°
2026-05-08 06:16 32.78081 -114.21473 35870 ft 442 kts 276°
2026-05-08 06:17 32.78508 -114.32404 35895 ft 441 kts 276°
2026-05-08 06:17 32.79094 -114.39582 35917 ft 436 kts 287°
2026-05-08 06:18 32.80903 -114.46427 35928 ft 434 kts 291°
2026-05-08 06:18 32.82776 -114.53240 35928 ft 434 kts 291°
2026-05-08 06:19 32.84646 -114.60052 35927 ft 433 kts 291°
2026-05-08 06:19 32.86511 -114.66875 35917 ft 433 kts 291°
2026-05-08 06:20 32.87846 -114.73886 35664 ft 439 kts 276°
2026-05-08 06:20 32.87845 -114.77529 35181 ft 440 kts 271°
2026-05-08 06:20 32.87753 -114.81156 34713 ft 437 kts 271°
2026-05-08 06:21 32.87665 -114.84763 34225 ft 436 kts 271°
2026-05-08 06:21 32.87579 -114.88360 33718 ft 434 kts 271°
2026-05-08 06:21 32.87497 -114.91941 33206 ft 432 kts 272°
2026-05-08 06:21 32.87418 -114.95498 32725 ft 428 kts 272°
2026-05-08 06:22 32.87339 -114.99036 32252 ft 426 kts 272°
2026-05-08 06:22 32.87259 -115.02547 31765 ft 423 kts 271°
2026-05-08 06:22 32.87180 -115.05988 31324 ft 420 kts 272°
2026-05-08 06:22 32.87099 -115.09452 30863 ft 418 kts 271°
2026-05-08 06:23 32.87015 -115.12903 30427 ft 416 kts 271°
2026-05-08 06:23 32.86929 -115.16331 29969 ft 414 kts 271°
2026-05-08 06:23 32.86843 -115.19750 29505 ft 411 kts 271°
2026-05-08 06:23 32.86759 -115.23134 29089 ft 408 kts 271°
2026-05-08 06:24 32.86675 -115.26488 28673 ft 405 kts 271°
2026-05-08 06:24 32.86591 -115.29829 28264 ft 402 kts 271°
2026-05-08 06:24 32.86504 -115.33139 27857 ft 400 kts 270°
2026-05-08 06:24 32.86160 -115.36419 27469 ft 400 kts 263°
2026-05-08 06:25 32.85701 -115.39680 27054 ft 399 kts 263°
2026-05-08 06:25 32.85245 -115.42926 26644 ft 398 kts 263°
2026-05-08 06:25 32.84789 -115.46169 26222 ft 397 kts 263°
2026-05-08 06:25 32.84335 -115.49396 25805 ft 396 kts 263°
2026-05-08 06:26 32.83848 -115.52622 25317 ft 397 kts 262°
2026-05-08 06:26 32.83325 -115.55852 24841 ft 398 kts 261°
2026-05-08 06:26 32.82783 -115.59079 24363 ft 399 kts 261°
2026-05-08 06:26 32.82235 -115.62313 23883 ft 400 kts 261°
2026-05-08 06:27 32.81692 -115.65541 23562 ft 396 kts 261°
2026-05-08 06:27 32.81164 -115.68720 22977 ft 389 kts 261°
2026-05-08 06:27 32.80651 -115.71833 22433 ft 377 kts 261°
2026-05-08 06:27 32.80155 -115.74839 22006 ft 365 kts 261°
2026-05-08 06:28 32.79668 -115.77785 21561 ft 361 kts 261°
2026-05-08 06:28 32.79185 -115.80698 21132 ft 358 kts 261°
2026-05-08 06:28 32.78710 -115.83577 20710 ft 359 kts 261°
2026-05-08 06:28 32.78383 -115.86499 20283 ft 356 kts 268°
2026-05-08 06:29 32.78174 -115.89429 19867 ft 355 kts 267°
2026-05-08 06:29 32.77960 -115.92355 19446 ft 355 kts 267°
2026-05-08 06:29 32.77743 -115.95272 19018 ft 354 kts 266°
2026-05-08 06:29 32.77524 -115.98188 18603 ft 354 kts 266°
2026-05-08 06:30 32.77305 -116.01099 18170 ft 354 kts 266°
2026-05-08 06:30 32.77087 -116.04014 17653 ft 355 kts 266°
2026-05-08 06:30 32.76869 -116.06933 17215 ft 354 kts 266°
2026-05-08 06:30 32.76650 -116.09834 16797 ft 352 kts 266°
2026-05-08 06:31 32.76428 -116.12725 16373 ft 350 kts 266°
2026-05-08 06:31 32.76206 -116.15600 15990 ft 349 kts 266°
2026-05-08 06:31 32.75985 -116.18463 15575 ft 347 kts 266°
2026-05-08 06:31 32.75764 -116.21311 15158 ft 346 kts 266°
2026-05-08 06:32 32.75542 -116.24159 14742 ft 345 kts 266°
2026-05-08 06:32 32.75320 -116.26996 14331 ft 345 kts 266°
2026-05-08 06:32 32.75100 -116.29833 13976 ft 343 kts 266°
2026-05-08 06:32 32.74886 -116.32612 13764 ft 332 kts 266°
2026-05-08 06:33 32.74676 -116.35329 13198 ft 328 kts 266°
2026-05-08 06:33 32.74470 -116.37963 12711 ft 323 kts 266°
2026-05-08 06:33 32.74263 -116.40622 12338 ft 323 kts 266°
2026-05-08 06:33 32.74057 -116.43272 11999 ft 321 kts 266°
2026-05-08 06:34 32.73851 -116.45904 11568 ft 318 kts 266°
2026-05-08 06:34 32.73646 -116.48500 11188 ft 313 kts 266°
2026-05-08 06:34 32.73442 -116.51062 10829 ft 310 kts 266°
2026-05-08 06:34 32.73214 -116.53599 10423 ft 308 kts 266°
2026-05-08 06:35 32.72970 -116.56112 10036 ft 305 kts 265°
2026-05-08 06:35 32.72719 -116.58600 9616 ft 301 kts 265°
2026-05-08 06:35 32.72472 -116.61056 9233 ft 299 kts 265°
2026-05-08 06:35 32.72230 -116.63506 8863 ft 298 kts 265°
2026-05-08 06:36 32.71993 -116.65937 8525 ft 296 kts 265°
2026-05-08 06:36 32.71778 -116.68348 8257 ft 291 kts 266°
2026-05-08 06:36 32.71590 -116.70726 7779 ft 288 kts 267°
2026-05-08 06:36 32.71414 -116.73066 7369 ft 280 kts 268°
2026-05-08 06:37 32.71241 -116.75338 7010 ft 273 kts 268°
2026-05-08 06:37 32.71069 -116.77556 6665 ft 267 kts 268°
2026-05-08 06:37 32.70901 -116.79727 6315 ft 260 kts 268°
2026-05-08 06:37 32.70687 -116.81831 5981 ft 255 kts 260°
2026-05-08 06:38 32.70135 -116.83772 5679 ft 247 kts 253°
2026-05-08 06:38 32.69541 -116.85658 5406 ft 235 kts 253°
2026-05-08 06:38 32.68990 -116.87414 5146 ft 227 kts 254°
2026-05-08 06:38 32.68453 -116.89157 4950 ft 225 kts 255°
2026-05-08 06:39 32.67931 -116.90916 4630 ft 226 kts 254°
2026-05-08 06:39 32.67447 -116.92688 4350 ft 223 kts 262°
2026-05-08 06:39 32.67416 -116.94492 4090 ft 217 kts 282°
2026-05-08 06:39 32.67822 -116.96211 3839 ft 217 kts 288°
2026-05-08 06:40 32.68247 -116.97923 3585 ft 215 kts 287°
2026-05-08 06:40 32.68651 -116.99587 3351 ft 203 kts 287°
2026-05-08 06:40 32.69025 -117.01131 3132 ft 188 kts 287°
2026-05-08 06:40 32.69373 -117.02562 2891 ft 172 kts 286°
2026-05-08 06:41 32.69691 -117.03861 2703 ft 157 kts 286°
2026-05-08 06:41 32.69987 -117.05077 2514 ft 150 kts 285°
2026-05-08 06:41 32.70273 -117.06257 2321 ft 148 kts 285°
2026-05-08 06:41 32.70556 -117.07425 2130 ft 146 kts 285°
2026-05-08 06:42 32.70837 -117.08581 2034 ft 146 kts 285°
2026-05-08 06:42 32.71121 -117.09748 1861 ft 151 kts 284°
2026-05-08 06:42 32.71409 -117.10958 1494 ft 151 kts 285°
2026-05-08 06:42 32.71696 -117.12135 1224 ft 146 kts 285°
2026-05-08 06:43 32.71974 -117.13280 995 ft 143 kts 285°
2026-05-08 06:43 32.72254 -117.14408 758 ft 142 kts 286°
2026-05-08 06:43 32.72529 -117.15528 499 ft 141 kts 284°
2026-05-08 06:43 32.72788 -117.16633 326 ft 141 kts 285°
2026-05-08 06:44 32.73063 -117.17760 75 ft 139 kts 285°
2026-05-08 06:44 32.73315 -117.18807 24 ft 119 kts 286°
2026-05-08 06:44 32.73499 -117.19554 27 ft 71 kts 287°
2026-05-08 06:44 32.73614 -117.20025 27 ft 52 kts 286°
2026-05-08 06:45 32.73683 -117.20316 23 ft 27 kts 286°
2026-05-08 06:45 32.73637 -117.20405 20 ft 11 kts 182°
2026-05-08 06:45 32.73566 -117.20370 21 ft 11 kts 97°
2026-05-08 06:45 32.73566 -117.20275 24 ft 11 kts 98°
2026-05-08 06:46 32.73551 -117.20180 25 ft 12 kts 105°
2026-05-08 06:46 32.73522 -117.20122 27 ft 8 kts 152°
2026-05-08 06:46 32.73458 -117.20101 27 ft 10 kts 168°
2026-05-08 06:46 32.73410 -117.20112 26 ft 7 kts 193°
2026-05-08 06:47 32.73406 -117.20113 25 ft 0 kts 193°